Theta_e
326 326 327 326 327 327 326 327 328 327 329 331 331 330 330 330 330 330 331 330 330 331 332 332 332 332 332 332 332 332 331 331 330 329 329 329 329 330 329 329 330 332 331 331 331 331 331 330 329 329 328 327 327 327 326 326 325 322 320 319 318 317 316 315 313 311 311 313 316 317 315 313 311 307 304 305 306 304 302 301 301 301 302 304 305
326 326 326 326 326 326 326 327 327 327 328 330 330 329 329 329 330 330 330 331 331 331 332 332 331 331 332 331 331 331 331 331 330 330 329 329 329 330 330 329 330 331 331 330 330 330 330 330 330 329 328 327 327 327 326 326 325 323 321 319 318 317 315 315 313 310 309 310 313 313 312 311 310 307 305 305 306 305 303 302 302 302 302 303 305
325 326 326 326 326 326 326 326 327 328 329 329 330 329 329 329 329 329 329 330 332 332 332 331 330 330 331 330 330 331 331 331 330 330 330 329 329 330 330 330 330 331 330 330 329 329 330 330 330 329 327 327 327 327 326 326 325 324 323 321 319 316 315 314 314 312 310 310 311 311 311 310 309 308 306 306 306 305 304 304 304 303 302 303 305
324 326 326 326 326 326 326 326 327 328 329 330 330 330 329 328 329 328 326 327 331 332 331 331 330 330 330 329 329 330 330 330 330 330 330 329 329 330 329 329 329 330 330 329 328 328 329 330 330 329 328 328 328 327 326 326 326 326 325 324 322 318 316 314 313 313 311 310 310 310 311 310 309 308 307 306 306 305 304 304 304 303 303 303 304
321 324 326 326 326 326 326 325 327 328 329 330 330 330 329 328 328 328 325 324 329 332 331 330 330 329 329 329 329 330 329 329 329 328 329 329 329 329 329 329 329 329 329 329 328 328 328 329 329 329 328 328 328 328 327 327 327 327 327 325 324 323 320 316 315 314 313 311 311 310 310 310 309 308 308 307 306 306 305 304 303 303 303 303 304
318 322 324 326 326 326 326 325 327 327 328 329 329 329 329 327 327 328 326 324 328 331 330 329 329 329 329 329 329 329 328 328 328 327 328 328 328 329 329 329 329 329 329 329 328 327 327 328 328 328 328 329 329 328 328 328 328 329 328 326 325 324 323 321 320 319 316 312 311 310 310 310 309 308 309 309 308 307 306 304 304 304 304 304 305
316 319 322 324 326 326 326 326 326 326 327 328 329 329 328 327 327 326 326 325 327 329 328 328 328 328 329 329 328 328 328 328 327 327 327 327 328 329 328 328 329 328 329 328 328 327 327 327 328 328 328 329 329 329 328 328 328 328 327 326 324 324 324 322 321 320 316 311 310 310 310 310 310 309 309 309 308 307 307 305 305 305 305 305 306
313 316 319 322 324 325 326 326 326 326 327 327 328 327 327 327 327 326 326 326 326 327 327 327 327 328 328 328 328 328 328 328 328 327 327 327 328 328 328 328 328 328 328 328 327 328 328 328 328 328 328 328 328 329 329 329 328 327 326 325 324 324 323 322 321 319 314 310 309 309 309 309 309 309 309 309 308 308 308 307 307 307 306 306 307
309 313 316 319 322 323 325 326 326 326 327 327 328 327 327 327 327 325 326 326 326 326 326 326 327 328 328 328 328 328 328 327 327 327 327 327 327 328 328 327 327 327 328 328 327 328 328 328 329 329 328 328 328 329 329 328 327 326 325 324 324 323 322 321 320 317 312 309 309 309 309 309 310 309 309 309 309 310 310 308 308 308 307 306 307
307 309 312 314 318 321 323 325 326 326 327 327 327 327 327 327 326 325 325 326 326 326 326 325 325 326 327 327 327 327 327 326 326 326 326 326 326 327 327 327 326 326 326 327 327 328 328 329 330 330 330 329 329 328 327 325 324 324 324 323 323 322 321 320 319 316 312 310 309 309 309 309 310 309 310 310 310 310 310 309 309 308 307 306 307
306 307 308 310 313 318 321 324 325 326 327 327 327 327 327 326 325 324 325 325 325 324 324 324 324 324 325 326 326 327 326 325 325 325 325 325 325 325 325 326 325 325 325 326 327 328 328 329 329 329 329 328 328 328 325 322 321 322 323 322 321 320 319 319 318 316 313 311 310 309 310 310 310 310 310 310 310 309 309 309 309 309 307 306 307
305 306 307 308 310 314 319 323 324 325 326 326 326 326 326 326 325 325 325 325 323 322 322 323 323 324 325 325 325 325 324 323 323 322 323 323 323 324 324 323 324 325 325 325 325 326 327 328 328 328 328 327 326 325 321 318 318 319 319 318 317 317 317 317 316 314 313 311 310 310 310 310 311 310 310 310 310 310 310 310 309 308 308 307 307
304 305 306 307 309 312 317 321 322 323 325 326 326 325 325 325 324 323 323 324 322 321 321 322 322 323 324 324 324 323 322 322 322 321 321 321 321 322 322 322 323 324 324 324 325 326 326 326 326 327 326 324 323 321 318 316 316 317 316 316 316 315 315 315 315 315 314 313 313 313 313 314 315 315 314 314 314 315 315 314 313 311 310 309 310
304 304 304 305 307 310 313 315 317 319 322 325 325 324 323 323 322 321 320 320 319 319 319 320 320 320 321 321 321 321 321 321 321 321 321 320 320 321 321 322 322 323 324 324 325 324 323 324 325 325 323 320 318 317 316 315 315 315 315 315 315 314 314 314 314 314 314 314 315 315 315 316 317 317 317 317 318 318 318 318 317 316 315 315 316
303 303 304 304 305 307 310 311 313 314 318 321 323 323 322 320 319 318 317 316 315 316 316 316 316 316 316 317 318 318 319 320 321 321 321 321 320 320 321 321 322 322 322 322 322 321 320 320 321 319 317 316 315 314 313 314 315 315 315 315 314 314 314 314 314 315 315 315 316 316 316 316 317 316 317 317 317 318 318 317 316 315 315 315 315
302 302 303 303 304 305 307 309 310 310 312 316 319 320 319 317 316 316 315 312 311 311 311 311 311 312 312 313 314 316 318 319 320 320 320 320 320 320 320 320 320 320 319 318 318 317 317 316 316 315 315 315 315 315 315 315 316 316 316 315 314 314 314 313 313 312 313 313 313 314 314 313 313 313 313 313 313 312 311 310 309 309 309 309 310
301 302 302 303 303 304 305 307 308 307 308 309 311 311 312 312 312 313 312 310 307 306 306 306 307 309 310 311 312 314 316 319 320 319 320 320 320 320 319 318 318 317 316 316 316 316 315 315 315 316 317 318 318 319 319 318 317 317 316 314 312 311 309 307 306 306 306 306 307 307 307 307 307 307 307 307 307 306 305 305 305 306 306 306 308
301 301 302 302 303 303 304 305 306 306 305 306 306 306 306 306 306 307 308 307 304 303 302 302 304 306 308 309 310 313 316 318 319 319 319 319 319 319 319 317 316 315 314 313 313 313 312 313 314 315 315 315 314 315 316 317 317 317 315 312 308 305 303 302 302 302 303 303 303 303 304 304 304 304 304 304 304 304 304 304 304 304 304 305 306
300 301 301 302 303 303 303 304 305 305 305 304 304 303 303 302 302 302 304 305 304 303 302 300 301 303 305 306 308 311 314 315 317 317 316 316 316 317 317 316 314 312 311 310 310 309 309 309 310 311 311 309 309 308 309 311 311 309 309 308 305 303 301 301 302 302 302 303 303 303 303 303 304 304 304 304 304 304 304 304 304 303 303 303 303
300 300 301 302 303 302 303 303 304 304 304 304 303 302 301 300 300 299 300 302 303 303 302 301 300 300 301 303 306 308 310 312 313 313 312 312 312 312 313 313 312 310 310 309 308 307 306 306 306 306 305 305 306 305 305 305 305 303 302 303 303 302 302 302 302 302 302 302 302 302 303 303 303 303 303 303 303 303 303 303 303 302 302 301 300
299 299 300 301 302 302 302 302 303 303 303 303 303 302 301 300 300 299 299 300 301 302 302 301 301 300 300 301 302 304 306 308 310 310 310 309 309 309 309 308 307 308 308 307 306 305 304 303 302 301 301 302 302 302 302 302 302 301 301 302 303 303 303 303 303 302 302 302 302 301 301 301 301 301 301 301 301 301 301 301 301 301 300 300 299
299 299 299 299 301 302 302 302 302 302 303 303 303 303 302 301 301 300 300 299 300 300 300 300 300 300 300 300 300 300 302 304 306 308 309 308 306 306 306 304 303 303 303 303 303 302 301 300 300 299 300 300 300 301 301 301 301 302 302 302 303 303 303 303 302 302 302 301 301 301 300 300 300 300 300 300 300 300 300 300 300 300 299 299 298
300 299 298 298 299 301 301 302 302 302 302 303 303 303 303 303 302 301 301 300 300 300 299 300 300 300 300 299 299 299 299 301 302 303 305 306 305 304 303 303 302 302 300 299 300 300 299 299 300 300 300 301 301 301 302 302 302 303 303 303 303 303 302 302 302 301 301 301 300 300 300 299 299 299 299 299 299 299 300 299 299 299 299 298 298
301 300 299 298 298 299 300 301 302 302 302 302 303 302 302 303 303 302 301 301 300 300 300 300 299 299 299 299 299 298 299 299 300 300 301 302 302 301 301 300 300 300 299 299 299 300 300 300 301 301 301 302 302 302 303 302 303 303 302 302 302 302 302 301 301 301 300 300 299 299 298 298 298 298 298 298 298 298 298 298 298 298 297 297 297
300 300 300 299 297 297 299 300 301 301 301 302 302 303 303 302 302 302 301 301 301 301 301 300 299 298 298 298 299 299 299 299 299 299 299 299 299 299 299 299 298 299 299 300 300 301 301 301 301 301 302 302 302 302 302 301 301 301 301 301 301 301 301 300 300 300 299 298 298 297 297 297 296 296 296 296 296 296 296 296 296 296 296 296 296
300 300 300 299 298 297 297 298 299 300 300 301 301 301 302 302 302 301 301 301 301 300 300 300 299 298 297 298 298 298 298 298 298 298 298 298 298 298 298 298 299 299 300 301 301 300 300 301 301 301 301 301 301 301 300 300 300 300 300 300 300 300 299 299 299 298 297 297 296 296 295 295 295 295 294 294 294 295 295 295 295 295 296 296 296
299 299 299 299 298 297 296 297 298 299 299 300 300 300 301 301 301 300 300 300 300 300 300 300 300 299 298 298 297 297 297 297 297 297 297 297 298 299 299 300 300 300 301 301 301 301 301 301 301 300 300 300 300 300 300 299 299 299 299 298 298 298 297 297 297 296 296 295 295 294 294 294 294 293 293 294 294 294 294 294 295 295 295 296 296
299 299 299 299 298 297 296 296 297 298 298 299 299 299 300 300 300 299 300 299 299 299 299 299 299 299 298 298 297 297 297 297 297 297 297 297 298 299 300 300 300 300 300 301 300 300 300 300 300 300 300 299 299 299 299 299 298 298 297 297 296 296 296 296 296 295 294 294 293 293 293 293 293 293 293 293 293 293 293 294 294 294 295 295 295
298 299 299 299 298 298 297 296 296 297 297 298 298 299 299 299 300 300 300 300 300 299 299 299 299 299 299 298 298 297 297 296 296 296 296 297 298 298 299 299 299 300 300 300 300 300 300 300 299 299 299 299 298 298 297 297 297 296 296 296 295 295 295 295 294 293 293 293 292 292 292 292 292 292 292 292 293 293 293 293 294 294 294 295 295
298 298 299 299 299 298 297 297 296 296 296 296 297 297 298 298 298 299 299 299 300 299 299 298 298 298 298 298 298 297 296 296 296 296 296 296 297 298 298 298 299 299 299 300 300 300 299 299 299 298 298 298 297 296 296 296 295 295 295 295 294 294 293 293 292 292 292 292 292 292 292 292 292 292 292 292 292 292 293 293 293 294 294 295 295
297 297 298 299 299 298 297 297 296 296 296 296 296 296 296 296 297 297 297 297 298 298 298 297 297 297 297 297 297 297 296 296 296 297 296 296 297 298 298 298 299 299 299 299 299 299 299 298 297 297 297 297 296 295 295 295 294 294 294 293 293 292 292 292 291 291 291 291 291 291 291 292 292 292 292 292 292 292 293 293 293 294 294 294 294
297 297 297 297 298 298 298 297 297 297 296 296 296 295 295 296 296 296 296 296 296 296 296 296 296 296 297 297 297 297 297 297 297 297 297 297 298 298 299 299 299 299 299 300 299 298 297 297 296 296 296 295 295 295 295 294 294 293 293 292 291 291 291 291 291 291 291 291 291 291 291 291 291 291 292 292 292 292 293 293 293 293 293 293 293
298 297 297 297 297 298 298 297 297 297 297 296 296 295 295 295 295 295 295 295 295 295 296 296 296 296 296 297 297 297 298 298 298 298 298 298 299 299 299 299 299 299 299 299 298 297 296 296 295 295 295 295 294 294 294 293 293 292 292 291 291 291 291 290 290 290 291 291 291 291 291 291 291 291 291 291 292 292 292 293 292 292 293 293 293
299 298 297 297 297 297 297 297 297 297 297 296 296 296 295 295 295 295 295 295 295 295 295 295 296 296 296 297 297 297 298 298 298 298 298 298 298 298 299 299 298 298 298 298 297 296 295 295 294 294 294 294 293 293 293 292 292 291 291 291 290 290 290 290 290 290 290 290 290 290 291 291 291 291 291 291 291 292 292 292 292 292 292 292 292
299 297 296 296 297 297 297 297 297 297 297 297 296 296 296 295 295 295 295 295 295 295 295 295 295 296 296 296 297 297 298 298 297 298 298 298 298 298 298 298 297 297 297 297 296 296 295 294 294 294 293 293 293 292 292 291 291 291 290 290 290 290 290 290 290 290 290 290 290 290 290 290 291 291 291 291 291 291 291 291 292 292 291 291 292
298 296 296 296 297 297 297 297 297 297 297 297 296 296 296 296 295 295 295 295 295 295 295 295 295 295 295 295 296 296 297 297 297 297 297 297 297 298 298 297 296 296 296 295 295 295 294 294 294 293 293 293 292 291 291 290 290 290 290 290 290 290 290 290 290 290 290 290 290 290 290 290 290 290 290 290 291 291 291 291 291 291 291 291 291
298 297 296 296 296 296 297 297 297 297 297 297 297 296 296 296 296 296 296 295 295 295 295 295 295 295 295 295 295 295 296 296 296 296 296 296 296 297 297 296 295 295 294 294 294 294 294 293 293 293 293 292 291 290 290 290 290 290 290 290 290 290 290 290 290 290 290 290 290 290 290 290 290 290 290 290 290 290 290 290 290 291 291 291 291
299 298 297 297 297 297 297 297 297 297 297 297 297 297 296 296 296 296 296 295 295 295 295 295 295 295 294 294 294 294 295 295 296 296 296 296 296 296 295 295 294 294 293 293 293 293 293 293 293 293 292 292 291 290 290 290 290 290 290 290 290 290 290 290 290 290 290 290 290 290 290 290 290 290 290 290 290 290 290 290 290 290 291 291 291
299 298 298 298 297 297 297 297 297 297 297 297 297 297 297 297 296 296 295 295 294 295 295 295 295 295 294 294 294 294 294 294 294 294 294 294 294 294 294 293 293 293 292 292 293 293 293 293 292 292 292 292 291 291 290 290 290 290 290 290 290 290 290 290 290 290 290 290 290 289 289 290 290 290 290 290 290 290 290 290 290 290 291 291 291
299 298 298 298 298 297 297 297 297 297 296 296 296 296 297 297 297 296 295 294 294 294 294 295 294 294 294 294 294 294 293 293 293 293 293 293 293 293 293 293 292 292 291 291 292 292 292 292 292 292 291 291 291 291 291 290 290 290 290 290 290 290 290 290 290 290 290 290 290 290 289 289 290 290 290 290 290 290 290 290 290 290 291 291 291
299 298 298 298 298 297 297 297 297 297 296 296 296 296 296 296 296 296 295 294 294 294 294 294 294 294 294 294 293 293 293 292 292 292 292 292 291 291 291 291 291 291 291 290 291 291 292 292 292 292 292 292 292 292 291 290 290 290 290 290 290 290 290 290 290 290 290 290 290 290 290 290 290 290 290 290 290 290 290 290 290 290 290 291 290
298 298 298 298 298 297 297 296 296 297 296 296 296 296 296 295 296 296 295 294 294 294 294 294 294 294 293 293 293 292 292 292 291 291 291 291 291 291 291 291 291 290 290 290 291 291 292 292 291 292 292 292 292 291 290 290 290 290 290 290 290 290 290 290 290 290 290 290 290 290 290 290 290 290 290 290 290 290 290 290 290 290 290 290 290
297 298 298 298 298 297 297 296 296 296 296 296 296 295 295 295 295 295 294 294 294 294 294 294 293 293 293 293 292 292 292 292 291 291 291 291 290 290 290 290 290 290 290 290 291 291 291 291 291 291 291 291 291 291 291 291 291 291 291 290 290 290 290 289 290 290 290 290 290 290 290 290 290 290 290 290 290 290 290 290 290 289 290 290 290
297 297 297 297 297 296 296 296 296 296 296 296 296 295 295 294 294 294 294 294 294 294 294 293 293 293 292 292 292 292 292 291 291 291 291 291 290 290 290 290 290 290 290 290 291 291 291 291 291 291 291 291 291 291 291 291 291 291 291 291 290 290 290 289 290 290 290 290 290 290 290 290 290 290 290 290 290 290 290 290 290 289 290 290 290
297 297 297 297 296 296 296 296 296 296 296 296 295 295 295 294 294 294 294 294 294 294 294 293 293 293 292 292 292 292 292 291 291 291 291 291 291 290 290 290 290 290 290 290 291 291 291 291 291 291 291 291 291 291 291 291 291 291 291 290 290 290 290 289 289 290 290 290 290 290 290 290 290 290 290 289 289 289 290 290 290 290 290 290 290
297 297 297 297 296 296 296 296 296 296 296 295 295 295 295 294 294 294 294 294 294 294 294 294 293 293 292 292 292 292 292 292 291 291 291 291 291 290 290 290 290 290 290 291 291 291 291 291 291 291 291 291 291 291 292 291 292 291 290 289 289 290 290 289 289 290 290 290 290 290 290 290 290 290 290 289 288 288 289 289 289 290 290 290 289
297 296 297 297 297 296 296 296 296 296 295 295 295 295 295 294 294 294 294 294 294 294 294 293 293 293 292 292 292 292 292 292 292 291 291 290 290 290 290 289 289 289 290 291 291 291 291 291 291 291 291 291 291 291 291 291 291 291 289 288 289 290 290 289 289 290 290 290 290 290 290 290 290 289 289 289 288 288 288 288 288 289 290 290 289
296 295 295 295 295 295 295 295 295 295 295 295 295 295 295 295 294 294 294 294 294 294 294 293 293 293 293 293 292 292 292 292 292 292 291 291 290 290 290 289 288 288 289 289 290 290 290 291 291 290 290 290 290 290 289 289 290 290 288 287 288 289 289 289 289 290 290 290 290 290 290 290 290 289 289 289 288 288 288 288 288 288 289 290 289
294 294 294 293 293 293 294 294 295 295 295 295 295 295 295 295 294 294 294 294 294 294 294 293 293 293 293 292 292 292 292 292 292 292 292 291 290 290 290 289 289 288 288 288 288 288 289 289 289 289 289 289 288 288 287 287 288 288 287 287 287 288 289 289 289 289 290 290 290 290 290 290 289 288 289 288 288 287 288 288 288 288 289 289 289
293 294 293 293 293 293 294 294 295 295 295 295 295 295 295 295 294 294 294 294 294 294 294 294 294 293 293 293 292 292 292 292 292 292 292 292 291 290 290 289 289 288 288 288 288 288 288 288 288 288 288 288 287 287 287 287 287 287 287 287 287 288 288 288 289 289 290 290 289 289 289 289 288 289 289 287 286 285 286 286 287 288 289 289 289
293 293 293 293 293 293 294 295 295 295 295 296 296 295 295 294 294 294 294 294 294 294 294 294 294 293 293 292 292 292 292 293 293 292 293 293 292 291 290 289 289 288 288 288 288 288 288 288 288 288 288 288 287 287 287 287 287 287 287 287 287 288 288 288 289 289 289 289 289 289 289 289 288 288 286 285 284 284 285 285 287 288 289 289 289
Wind_Speed
14 16 15 15 17 20 20 20 21 22 20 19 18 18 18 18 19 21 22 23 24 26 25 23 21 20 19 18 18 18 20 19 18 18 19 19 19 19 19 18 18 18 18 18 19 19 20 21 22 22 20 19 20 21 20 20 22 25 26 25 25 21 20 19 13 8 14 18 19 20 20 19 19 19 19 19 18 18 17 16 16 17 17 17 16
12 13 13 14 17 18 20 21 20 20 19 18 17 18 19 19 19 21 23 24 24 25 25 23 21 20 19 17 17 17 18 18 17 18 18 18 18 19 19 18 18 18 17 18 19 20 21 21 21 21 19 18 19 21 21 20 21 23 25 25 25 23 21 20 16 11 13 16 18 20 21 21 21 20 20 21 20 19 19 19 19 19 19 19 19
14 14 12 13 17 19 21 22 22 21 19 18 16 16 18 20 19 19 24 26 26 25 25 24 23 21 19 18 17 17 17 16 16 17 18 18 19 19 19 19 20 19 18 18 19 20 21 22 21 20 19 18 18 19 20 21 21 21 22 22 23 24 22 19 18 15 15 17 19 21 22 23 23 21 20 21 20 20 21 20 19 20 20 21 21
16 14 15 12 14 18 21 23 23 23 22 20 18 16 17 19 20 20 23 25 26 25 25 25 24 22 20 19 18 17 16 15 16 17 17 17 19 20 20 20 20 19 19 18 18 20 21 22 22 21 20 19 17 18 18 19 20 21 21 20 20 21 22 21 20 19 17 18 20 22 23 23 23 22 21 21 22 22 22 21 21 22 22 22 22
19 15 14 14 12 14 18 21 22 23 24 22 20 19 19 20 22 22 23 24 25 25 25 26 25 24 24 22 20 18 16 15 15 15 16 16 17 19 20 20 20 19 19 18 18 19 20 22 22 21 21 20 18 18 18 17 18 18 20 21 20 19 20 21 22 21 19 19 21 21 21 21 22 22 22 22 23 23 23 23 23 23 22 22 23
22 17 15 13 12 13 15 18 20 23 24 23 21 21 21 22 24 25 23 25 26 26 26 27 26 27 27 24 22 19 17 16 15 15 15 15 16 17 19 20 19 19 19 18 18 19 20 21 21 21 22 22 20 19 18 17 17 17 18 21 21 20 19 19 19 19 21 22 20 20 21 22 23 23 23 23 23 24 24 25 25 25 25 25 25
23 20 16 13 9 9 12 15 18 21 22 22 23 23 24 25 26 26 25 25 27 27 27 26 25 27 27 25 22 20 19 18 17 16 15 15 15 15 16 17 18 18 18 18 18 19 20 20 21 21 22 22 21 20 18 17 17 16 17 19 21 20 20 18 16 18 21 21 19 20 21 22 23 23 22 22 22 22 23 24 26 27 27 27 27
23 20 17 14 11 6 8 12 15 19 21 22 23 24 25 27 26 24 25 26 27 27 27 27 26 26 26 25 23 22 21 19 19 18 17 16 15 14 14 15 16 17 16 17 17 17 18 19 19 20 21 22 20 18 18 17 17 17 17 18 19 19 19 17 15 18 22 21 20 20 19 20 22 21 18 18 19 22 24 25 27 28 28 28 29
23 21 18 15 12 8 4 7 11 16 20 22 23 24 25 27 26 24 25 27 28 27 28 28 28 28 26 25 24 23 21 20 19 18 17 17 16 15 14 14 15 16 16 15 15 15 15 16 17 17 18 19 18 16 14 15 16 17 17 17 18 18 18 17 16 18 22 21 19 18 16 18 21 21 19 20 22 24 24 25 28 29 27 27 29
26 24 22 20 15 10 5 4 8 14 19 22 23 24 26 27 26 25 26 27 28 27 27 28 28 28 28 26 25 23 21 19 18 17 16 16 16 15 15 15 14 15 15 15 15 15 15 15 16 15 16 17 16 14 13 13 14 15 16 16 17 18 18 17 18 20 22 22 21 19 17 19 22 24 25 25 25 24 22 23 26 27 24 23 27
29 28 26 24 18 13 8 5 8 13 17 20 22 24 26 27 26 27 27 27 26 26 27 27 28 28 27 26 25 23 20 18 16 16 15 15 16 16 15 15 15 15 15 15 16 15 15 14 14 14 14 14 14 15 14 13 13 16 18 19 18 17 16 17 20 21 22 22 21 20 21 21 21 23 25 23 21 21 20 21 22 23 21 19 21
30 30 30 28 23 16 10 7 10 13 15 18 21 24 26 27 27 27 28 27 26 25 26 26 26 26 26 25 24 21 19 17 14 13 13 14 14 15 15 16 17 17 16 16 15 15 14 13 13 12 11 12 14 15 13 11 11 14 16 16 14 12 11 15 18 21 21 19 18 18 18 17 15 16 18 19 18 17 17 18 20 22 21 19 20
29 29 30 30 27 20 10 7 10 12 15 19 23 24 25 26 25 24 26 27 26 25 25 25 24 24 24 23 22 20 19 18 15 14 13 13 13 14 14 16 18 18 17 15 15 14 14 13 13 12 12 14 15 15 14 14 15 16 16 15 14 12 10 10 11 13 14 15 16 14 11 10 9 9 10 10 11 11 10 12 15 16 16 17 17
29 29 29 29 28 22 15 11 10 10 11 17 22 22 22 24 24 22 22 24 24 24 24 23 22 22 22 22 20 19 18 18 17 16 14 13 13 13 14 16 17 17 17 17 16 15 13 13 14 14 15 16 16 17 18 18 17 17 17 17 17 16 15 14 12 11 11 12 13 12 10 9 9 8 6 6 6 6 6 6 6 7 9 9 11
30 30 29 28 27 25 20 16 14 11 6 12 19 20 19 20 21 22 21 21 21 21 21 20 20 19 19 19 19 18 17 17 17 17 16 15 14 13 14 16 17 18 18 17 17 15 14 14 16 17 18 18 18 18 19 19 19 18 18 17 17 16 16 15 14 13 12 11 11 11 10 8 6 5 3 3 3 3 4 4 4 6 7 8 10
31 30 30 29 27 25 23 19 17 16 10 2 10 14 17 20 21 22 22 20 19 18 17 16 17 17 17 17 18 17 16 15 16 16 16 17 16 15 15 17 18 19 18 17 16 16 16 17 18 19 19 19 18 17 18 18 18 18 18 17 16 15 15 15 13 12 11 10 9 8 6 5 3 2 1 2 3 4 4 5 5 5 6 8 9
30 30 30 29 27 25 24 22 21 21 18 12 8 7 11 17 21 24 24 22 19 17 16 14 15 16 15 15 16 16 15 15 16 16 17 18 18 18 18 18 19 19 19 18 18 19 19 19 20 21 21 19 18 17 17 16 16 17 17 17 16 15 14 13 12 11 10 9 8 6 5 4 2 0 1 2 3 4 4 3 4 4 5 5 3
28 28 29 29 28 26 25 24 24 25 25 23 19 15 12 11 15 21 26 27 24 21 19 17 16 16 15 14 15 16 16 16 16 17 18 18 18 20 20 20 20 22 22 22 21 21 20 20 19 20 21 19 17 15 14 14 15 15 15 15 15 15 15 13 12 11 11 10 9 9 8 7 6 6 5 5 4 3 3 4 6 5 7 8 6
25 25 27 28 29 27 26 25 26 26 26 26 24 21 17 15 15 19 25 29 28 25 23 23 22 20 18 17 15 16 17 16 15 17 17 18 19 21 22 22 23 24 24 24 22 21 20 19 18 17 17 16 15 14 12 11 12 12 12 12 14 15 14 12 11 11 11 11 10 10 10 9 9 8 8 7 7 7 7 8 9 8 10 11 10
23 22 24 26 28 29 27 26 25 25 26 25 24 25 23 19 18 19 22 28 31 29 25 25 26 26 24 23 20 18 17 16 14 15 16 17 20 22 22 24 26 26 25 24 23 21 19 18 16 15 14 13 12 11 10 9 10 10 10 10 13 14 12 11 11 10 11 11 11 10 10 10 9 8 8 8 8 8 9 8 9 10 10 11 11
22 22 22 24 25 27 28 27 25 24 25 26 25 25 24 23 22 21 20 24 32 33 29 28 27 27 28 28 27 24 20 17 14 13 13 15 17 20 22 23 24 25 24 23 22 20 18 17 16 14 12 11 10 10 10 9 9 9 10 11 13 14 12 12 12 12 12 12 12 11 10 9 8 9 9 9 9 9 10 10 10 11 11 11 11
21 21 22 23 23 24 26 27 26 24 24 25 27 27 26 25 25 24 23 25 30 33 31 28 27 27 26 27 28 27 25 22 19 16 14 14 15 17 19 20 20 21 21 21 20 20 18 16 15 14 12 11 10 10 10 10 9 10 11 13 14 13 12 13 12 12 11 11 10 9 10 9 9 10 10 10 10 10 11 11 12 12 13 12 12
18 19 21 22 22 22 22 24 26 26 25 25 26 26 26 26 26 27 26 26 29 31 30 27 27 27 26 26 26 25 25 24 23 21 18 17 17 17 17 17 16 16 17 17 18 19 18 17 16 14 13 12 12 11 11 11 11 12 13 13 12 11 10 10 10 9 10 10 10 11 12 11 11 11 12 12 13 13 13 14 15 16 16 16 15
16 17 18 19 20 21 21 21 23 24 25 26 26 25 25 26 27 27 26 26 27 29 28 26 25 26 26 25 24 23 23 22 22 21 19 18 17 17 16 16 14 14 15 16 17 18 19 19 18 16 15 15 14 14 14 14 14 15 14 12 11 10 9 9 9 9 10 11 12 12 13 13 12 11 12 13 14 15 16 16 17 17 17 17 16
15 14 15 16 17 18 19 20 21 21 23 25 26 25 24 24 25 25 26 26 27 27 26 24 24 24 24 23 22 21 20 20 20 19 18 17 16 15 14 14 13 13 15 17 17 19 21 21 20 19 18 18 17 18 19 18 17 16 14 13 12 11 10 10 10 9 10 12 12 12 12 12 11 11 11 11 12 14 15 15 14 14 14 15 14
16 13 13 14 14 15 16 18 19 20 21 22 24 25 24 23 22 23 23 25 25 24 21 20 21 22 22 22 21 19 17 17 17 16 16 16 16 15 14 14 14 13 16 19 20 21 22 21 20 20 20 19 19 19 20 18 16 15 13 12 12 12 11 11 10 10 12 12 11 10 10 10 9 9 9 10 11 12 13 14 14 15 16 16 15
16 13 11 11 12 13 13 13 15 16 17 19 21 22 21 20 19 19 19 20 21 20 18 17 18 18 19 19 18 17 16 15 15 14 14 14 14 14 15 17 17 16 17 19 19 19 19 19 19 20 20 19 19 19 18 16 14 14 13 13 13 12 12 11 11 11 11 11 10 9 9 9 8 9 10 10 12 13 14 16 17 18 19 19 19
16 13 10 9 10 12 12 11 11 12 13 14 16 18 18 17 16 16 15 15 15 15 14 14 13 13 13 13 13 14 14 13 13 13 13 12 12 12 15 18 18 16 17 20 20 19 19 18 19 19 18 18 18 17 16 15 14 14 14 13 12 12 11 10 10 11 12 11 10 10 10 10 11 12 12 13 15 16 16 17 17 18 18 19 20
16 15 12 9 8 9 11 11 11 11 12 13 13 14 13 13 13 13 12 11 11 11 10 10 9 8 8 9 9 10 11 10 10 10 9 9 10 11 13 16 16 16 18 19 18 17 17 16 16 16 16 16 17 16 16 15 14 14 13 12 11 11 11 11 12 13 13 12 12 12 12 13 13 14 14 15 16 17 17 17 17 18 18 19 20
18 17 16 12 8 7 8 9 10 11 13 13 14 15 14 12 12 11 10 10 10 10 9 9 7 6 6 7 7 7 8 8 7 7 7 8 9 10 12 13 13 13 14 14 12 12 13 14 14 15 15 16 16 16 15 14 14 14 13 12 12 12 13 14 14 14 13 13 13 14 14 14 15 16 16 17 17 17 17 18 18 18 18 19 20
17 17 16 14 10 7 7 7 8 10 11 12 13 15 15 15 14 13 11 10 10 10 10 10 8 6 6 6 6 6 7 8 8 8 8 9 10 12 13 14 15 15 15 14 13 14 14 15 16 15 15 16 16 16 15 14 14 13 13 13 14 14 15 15 15 14 13 14 15 15 15 16 17 17 17 17 16 16 17 18 18 17 17 17 17
14 15 14 13 12 10 8 6 5 6 8 10 11 13 15 17 16 15 14 14 14 14 13 12 11 9 8 7 7 7 8 8 9 8 9 10 11 13 15 16 17 17 15 14 14 16 16 16 16 15 15 16 15 14 13 13 12 12 12 14 15 15 15 15 15 14 15 16 16 17 18 18 17 17 16 16 16 16 17 18 18 18 16 15 15
11 12 12 11 11 11 10 8 6 3 4 7 9 12 15 17 18 17 16 16 16 16 15 14 12 11 10 8 6 5 6 6 7 8 8 10 13 15 17 17 17 14 11 11 14 16 15 16 16 15 14 15 14 13 13 12 11 12 14 15 16 15 15 15 15 16 17 17 18 18 18 17 17 16 16 16 16 16 16 17 17 18 17 16 15
9 10 10 10 10 11 11 10 8 5 2 5 8 11 13 16 18 19 18 16 15 15 14 13 12 11 11 11 9 7 5 6 8 10 11 12 15 17 18 17 15 11 9 10 14 15 14 15 15 14 14 14 13 12 12 12 12 14 15 16 16 16 16 16 16 17 17 17 17 17 17 17 17 17 17 17 17 16 16 16 16 17 17 16 16
8 8 8 8 9 10 10 10 9 8 5 4 8 11 13 15 16 17 17 15 13 11 11 11 10 9 10 11 11 10 8 9 13 15 15 15 17 17 17 16 15 13 12 13 13 14 14 15 15 14 14 14 13 12 13 13 14 16 16 17 17 17 17 17 17 17 17 17 17 17 17 17 18 17 17 17 17 17 17 16 16 16 15 14 13
8 7 8 8 9 9 8 8 8 9 8 4 8 12 13 13 14 14 13 12 11 9 8 8 9 8 8 9 10 10 9 11 14 15 16 16 15 14 14 16 16 16 15 14 14 14 15 15 14 14 14 13 12 12 13 16 17 18 18 18 18 17 17 17 17 17 17 17 17 17 17 18 18 17 18 18 18 18 18 17 16 15 14 13 12
6 7 9 10 10 9 8 7 7 8 9 6 7 12 12 11 11 11 10 9 8 7 6 6 8 9 8 9 9 8 8 9 9 10 11 11 10 9 11 14 16 16 15 14 14 15 15 15 14 14 14 13 12 14 16 18 18 18 17 17 16 15 15 14 14 14 15 15 15 15 15 16 16 16 17 17 18 17 16 15 15 14 14 14 14
5 6 7 8 9 9 8 6 5 5 6 6 6 9 11 11 10 10 9 8 7 6 5 6 8 9 9 9 8 7 6 6 7 7 7 7 7 9 11 13 14 15 15 14 13 14 15 15 14 13 13 13 13 14 16 16 16 15 15 14 13 12 11 11 11 12 12 13 13 13 13 13 14 14 15 15 15 14 13 13 14 14 14 14 15
5 6 6 7 7 8 7 3 2 3 4 5 5 5 8 10 11 10 8 8 8 7 7 7 8 9 9 8 7 5 5 5 5 6 7 7 8 9 11 12 12 13 13 12 13 14 15 14 13 12 12 12 12 13 13 13 12 12 11 10 10 10 10 10 10 10 11 12 12 12 13 13 13 13 12 12 12 12 12 13 13 13 13 13 15
4 6 6 6 7 7 7 4 1 1 2 3 3 3 4 7 10 10 8 8 8 8 7 6 7 8 8 7 5 3 3 5 6 6 7 8 9 9 9 10 11 11 11 11 12 14 15 14 13 12 12 12 12 11 11 10 10 9 8 9 9 10 10 10 10 10 11 11 11 11 11 11 12 12 12 11 11 12 13 14 14 13 12 13 15
5 7 7 6 6 7 7 4 1 2 2 2 1 1 1 3 6 8 8 8 8 8 7 8 8 8 7 6 3 2 2 4 6 7 7 8 8 8 8 9 10 9 9 10 12 14 14 14 13 12 11 11 11 11 10 9 8 7 7 8 9 9 9 9 9 10 10 10 10 9 8 8 9 10 11 12 13 13 13 13 14 14 13 12 14
6 7 7 6 5 6 6 3 2 4 4 2 1 1 1 1 4 6 8 8 8 8 9 10 10 9 7 4 2 2 1 5 8 8 7 7 7 8 9 9 9 8 8 11 14 16 15 14 13 11 10 11 11 11 10 9 7 6 6 6 7 7 8 8 8 8 8 7 7 7 7 7 8 9 10 11 12 13 13 13 14 15 14 13 14
8 7 7 6 5 6 5 2 3 5 4 3 2 1 1 1 2 5 7 7 8 9 9 10 10 9 7 5 3 2 4 7 8 8 8 8 8 9 10 9 9 8 10 13 16 16 14 14 13 11 10 10 10 9 8 7 5 5 4 5 5 5 6 6 6 5 5 5 5 5 7 7 8 9 9 10 11 13 13 13 14 15 14 13 14
8 4 4 6 7 5 3 3 4 5 4 3 2 1 2 2 2 3 6 8 9 8 8 7 7 7 7 6 5 5 6 7 8 8 8 8 8 9 10 10 9 9 12 14 15 14 13 12 11 10 10 9 8 7 6 5 4 4 4 4 3 3 3 4 4 4 4 4 5 5 6 7 8 8 9 9 10 11 12 13 13 14 13 14 15
7 3 4 8 8 5 2 3 4 5 5 4 3 2 2 2 3 2 5 8 9 8 7 7 6 5 6 6 5 4 4 5 7 8 8 7 7 8 9 9 9 10 13 15 14 12 11 10 9 8 8 7 6 5 4 3 3 3 3 2 1 2 2 2 2 3 3 4 4 6 7 7 7 7 8 9 10 11 12 12 11 12 13 14 14
6 4 5 8 8 6 2 3 6 7 6 5 4 3 3 3 3 3 5 8 9 8 7 7 5 4 4 5 5 4 3 3 5 6 6 6 6 7 7 8 9 10 12 14 13 11 10 9 7 6 5 4 3 3 2 1 0 1 2 0 3 3 2 1 1 2 3 3 4 6 7 8 8 8 8 9 10 11 11 11 11 12 12 13 14
7 7 7 7 7 7 5 5 7 9 8 7 6 5 4 4 4 4 5 8 10 9 7 6 5 4 4 5 4 4 4 3 2 3 4 4 5 5 5 6 7 8 9 11 12 11 8 7 5 4 2 2 1 1 1 2 2 2 1 2 4 3 2 1 1 1 3 4 5 6 6 7 8 8 8 8 9 10 11 11 12 12 11 11 12
8 9 8 9 10 10 9 8 8 9 11 10 8 6 6 6 6 5 5 7 9 10 9 8 5 3 4 4 3 2 3 3 2 1 1 1 2 3 4 5 6 7 7 8 8 8 6 5 3 2 1 1 2 3 3 3 3 2 2 2 3 3 2 1 1 2 4 5 5 5 5 6 7 8 9 9 10 10 10 11 12 12 10 9 9
8 8 9 11 13 12 8 7 7 9 10 11 10 8 7 8 8 7 6 6 8 10 10 9 6 4 3 3 2 1 2 3 3 3 2 1 1 2 3 4 5 6 6 5 5 4 4 3 3 2 1 3 3 4 3 3 3 3 3 3 3 3 2 1 1 2 4 5 6 5 5 6 7 8 9 10 11 10 10 10 11 10 8 7 7
8 9 9 12 14 13 8 5 6 7 9 11 12 11 9 9 9 9 7 7 8 9 10 10 8 6 4 4 2 2 3 4 4 5 5 4 3 2 3 4 5 5 5 4 3 3 2 2 2 1 2 2 2 2 2 2 3 3 3 3 3 3 2 1 1 2 4 6 6 6 5 6 7 9 12 13 12 9 7 8 9 7 5 5 6
9 9 10 12 13 12 8 5 5 6 8 10 13 13 11 10 9 10 10 9 8 7 8 9 9 7 6 5 4 3 3 4 6 7 8 7 6 4 3 4 5 5 5 4 3 2 1 1 1 1 2 2 0 2 3 3 3 3 3 3 3 2 2 2 2 2 4 6 6 5 5 7 10 12 12 11 8 6 5 5 6 4 2 4 4
Wind_Direction
294 284 278 260 246 234 228 232 233 227 222 221 223 223 224 228 234 237 236 233 231 231 232 230 227 224 222 222 222 219 216 214 214 217 216 217 217 215 213 210 210 213 210 208 210 212 213 213 214 216 216 214 212 210 206 203 203 202 201 200 200 204 204 194 187 187 199 212 216 212 212 211 210 209 206 207 207 205 205 207 207 209 210 210 211
330 303 287 273 267 256 241 233 227 222 220 220 223 226 226 224 229 238 239 231 226 226 225 224 224 225 224 222 218 216 215 212 210 212 215 219 218 215 215 213 215 215 211 210 210 209 210 212 213 214 213 213 212 211 208 200 198 201 203 205 207 208 208 204 198 190 193 204 211 212 213 212 211 210 208 210 209 207 207 208 211 214 216 217 218
353 335 316 283 268 263 249 233 221 216 215 215 219 226 230 225 222 235 240 229 219 217 217 217 220 223 223 220 218 219 218 215 213 211 213 218 216 214 215 214 215 215 212 211 209 207 208 209 212 212 211 211 211 211 212 205 200 200 202 207 210 210 211 212 210 206 199 200 207 213 214 212 212 212 213 214 213 213 213 213 216 219 220 221 223
0 346 333 306 268 252 242 229 217 213 213 212 213 218 227 225 218 232 246 234 216 211 213 214 217 219 220 219 220 221 218 215 215 214 214 216 215 213 213 213 213 214 212 211 210 208 208 209 211 212 212 212 211 210 212 209 206 206 206 208 210 211 213 217 220 221 212 205 208 214 216 215 212 213 216 216 217 219 219 219 222 225 226 227 229
5 357 343 324 288 252 234 225 218 214 212 210 209 208 216 220 214 223 245 241 221 212 212 214 216 217 217 218 219 218 215 211 210 211 210 210 213 214 214 212 213 213 213 215 214 211 209 210 211 213 215 215 213 211 210 207 206 208 210 210 208 210 215 217 221 225 225 220 214 212 215 216 213 214 218 219 218 220 223 225 227 230 232 233 235
6 3 359 342 305 262 233 222 220 217 210 205 204 203 207 210 208 212 229 234 222 213 212 213 215 217 217 217 216 213 211 210 209 211 211 208 210 214 216 216 215 214 214 216 215 212 210 212 212 213 215 215 214 213 211 209 209 210 211 210 208 211 216 218 221 227 232 230 220 211 212 213 211 213 217 220 221 222 224 227 230 233 235 237 240
8 5 5 4 335 278 244 228 221 219 212 205 203 202 203 206 209 209 215 221 217 209 209 211 211 214 216 216 214 211 210 212 212 214 217 215 213 213 214 215 214 214 215 212 211 212 215 217 217 216 216 215 216 216 213 212 213 213 212 210 209 212 217 219 222 227 229 226 218 214 213 210 210 213 218 221 224 227 228 231 235 237 237 240 243
9 6 4 7 6 332 266 239 223 217 215 210 206 205 205 207 211 208 206 213 215 211 209 208 207 210 214 215 214 212 212 214 214 216 219 220 218 214 212 212 211 210 212 210 211 215 217 218 218 218 217 215 216 218 217 217 215 212 209 207 208 212 215 217 222 224 223 218 215 215 213 209 208 211 217 219 221 227 230 232 237 240 240 242 247
6 8 6 1 359 358 317 255 232 218 214 212 209 209 208 206 204 201 201 210 215 213 210 209 208 209 210 212 215 215 214 215 214 216 217 217 217 215 210 209 208 207 208 209 213 216 216 215 216 217 216 216 218 221 221 221 218 215 211 205 206 212 216 218 222 219 215 212 211 212 210 208 206 204 209 215 220 228 231 231 237 244 246 247 251
6 7 8 3 353 347 338 265 232 221 215 214 211 208 205 202 197 195 200 209 213 213 214 213 211 211 210 210 212 213 213 214 215 217 218 215 214 213 212 212 209 207 206 206 208 212 214 216 217 218 217 217 216 213 211 213 214 219 220 211 207 212 217 219 220 215 210 209 210 207 205 210 211 208 212 220 224 227 229 230 237 245 249 255 260
11 8 7 6 2 348 329 273 235 228 222 218 214 209 204 200 198 198 201 207 213 213 213 212 209 209 209 208 208 210 210 211 214 219 220 217 215 214 214 213 210 208 209 207 207 210 214 217 218 218 216 210 206 204 203 202 204 210 213 207 203 209 218 222 218 211 208 209 210 208 210 215 217 216 219 224 227 230 233 235 240 246 248 251 261
15 12 9 9 10 3 338 283 248 238 227 218 215 212 206 201 202 204 203 206 209 208 206 205 201 200 201 202 202 204 205 203 201 203 205 207 211 214 215 211 207 208 209 206 205 206 207 209 210 210 207 199 199 198 183 163 166 178 183 184 185 193 210 222 218 210 207 208 206 207 215 221 222 221 224 229 234 240 246 247 247 249 247 244 251
18 16 14 12 14 12 351 297 267 254 237 221 213 210 207 203 204 207 203 202 203 202 199 197 193 192 194 195 195 195 195 192 185 178 178 184 193 201 207 208 206 205 203 197 194 194 194 194 193 192 192 189 187 181 163 144 141 145 144 142 142 144 157 177 192 197 202 204 196 190 195 198 190 189 200 212 222 229 236 243 247 249 252 253 258
22 19 17 15 16 15 3 339 320 293 253 227 217 211 207 202 200 200 196 192 193 193 192 191 189 187 188 188 187 187 189 189 184 178 174 176 180 183 189 195 197 193 188 184 183 180 179 178 175 172 173 172 170 167 162 155 150 144 138 132 126 125 129 131 136 144 154 170 170 154 144 150 153 153 160 175 191 201 206 216 232 245 254 258 264
25 22 19 18 18 19 15 7 358 348 302 230 218 212 203 192 188 187 182 176 177 180 181 183 183 180 178 177 177 177 181 185 187 186 186 186 182 175 173 176 178 175 173 172 171 168 165 165 163 161 161 161 162 164 161 157 152 145 137 130 124 122 120 116 114 119 125 135 139 131 128 133 138 145 160 180 198 220 232 239 255 263 266 272 275
25 23 21 20 20 22 24 25 23 19 14 236 207 200 191 182 179 179 172 163 161 162 162 166 168 166 166 166 166 165 167 175 181 183 188 193 190 178 169 165 163 160 157 157 156 154 154 155 154 153 152 152 155 159 159 159 154 144 134 127 123 120 114 106 105 106 109 114 117 119 124 125 136 169 226 255 257 269 270 270 278 280 286 291 288
24 23 22 21 23 26 30 37 42 42 42 52 77 115 151 163 168 170 164 152 142 136 133 137 144 148 150 152 154 152 150 158 168 172 179 189 192 184 174 164 156 151 146 144 144 144 143 145 145 145 144 143 144 149 156 160 155 144 134 125 119 114 108 104 105 105 103 106 107 106 106 98 93 87 325 291 281 282 270 275 302 309 322 332 311
22 24 25 25 26 30 36 43 50 53 51 51 59 75 94 118 140 150 150 141 128 116 107 100 107 122 127 128 136 141 139 144 157 164 167 176 183 183 178 166 152 145 141 138 138 138 136 136 138 140 138 137 138 142 150 156 150 142 136 128 117 108 104 105 109 108 107 107 105 105 104 99 98 93 82 77 61 34 33 41 26 10 19 30 19
18 21 27 31 32 34 39 46 53 60 60 55 56 65 73 84 101 119 129 129 122 113 103 88 81 90 101 107 115 126 129 135 147 155 159 164 166 168 170 164 150 141 139 137 134 133 132 131 133 135 133 132 135 136 139 146 142 136 138 138 123 108 105 112 116 117 118 115 111 111 108 101 98 93 85 77 63 49 48 46 34 25 32 34 26
21 22 28 35 38 39 42 46 53 61 69 69 64 61 63 68 78 88 103 115 117 113 106 94 79 73 78 86 92 101 111 120 132 141 146 150 151 151 153 153 148 143 141 138 133 131 129 128 126 126 126 127 130 131 131 134 133 129 134 137 124 113 113 117 116 118 119 113 107 104 99 92 87 80 72 64 57 50 44 37 24 18 21 20 18
27 28 31 36 41 42 44 48 53 61 72 80 80 75 68 64 66 68 75 93 105 106 103 99 90 78 74 77 78 81 88 99 111 123 129 132 138 141 138 136 138 140 139 137 134 129 126 124 121 119 119 121 122 123 121 120 123 124 124 121 119 118 118 113 109 109 107 104 101 94 87 79 69 61 52 44 42 36 28 22 14 7 3 360 359
27 29 32 37 42 46 47 49 54 61 70 80 84 86 84 77 72 70 67 73 85 90 90 91 90 84 77 76 75 74 77 83 90 96 105 110 115 123 126 125 127 129 127 127 128 126 122 120 117 114 116 117 115 114 114 115 117 115 112 112 114 115 112 107 105 101 94 88 82 71 62 52 40 33 27 21 18 11 3 360 355 348 344 342 340
23 26 32 36 41 48 52 53 57 61 67 75 81 84 88 87 81 75 71 69 74 79 80 79 80 79 76 73 72 71 72 76 80 83 89 95 96 97 102 107 112 115 110 106 111 116 117 115 113 112 114 112 109 107 106 107 107 105 105 108 108 107 104 98 90 82 74 67 59 51 45 38 28 17 7 359 354 348 342 337 332 327 322 320 319
20 20 26 32 39 47 53 58 62 65 67 72 77 78 82 87 87 84 79 73 71 72 72 72 73 73 72 71 70 69 69 71 75 78 82 88 89 88 88 88 91 99 99 96 99 105 108 109 110 111 111 108 106 103 100 98 99 99 101 104 103 100 94 85 79 75 70 61 54 48 40 32 23 11 359 350 341 334 330 325 321 319 315 313 313
23 20 20 24 33 42 51 58 64 68 70 73 75 75 79 84 87 86 82 76 70 67 66 66 68 71 73 73 71 70 69 70 72 73 76 78 80 81 82 80 79 86 94 96 99 103 105 108 110 110 109 109 109 105 100 97 98 99 99 99 96 91 86 81 78 74 68 59 50 42 32 23 16 6 356 347 339 333 331 329 329 327 324 322 323
26 26 23 23 25 33 45 55 61 67 71 75 77 78 80 81 79 75 73 70 68 68 66 63 65 69 72 73 71 68 67 67 67 68 70 72 74 76 78 80 82 89 95 99 104 107 108 109 111 110 110 110 109 105 101 99 97 94 90 87 84 81 77 75 72 67 63 57 46 36 29 22 14 7 360 356 355 356 355 354 352 351 348 344 345
28 30 32 32 29 31 38 47 55 61 67 73 78 80 82 82 78 71 68 67 68 71 71 67 66 67 68 69 70 69 67 66 66 67 68 70 74 79 87 93 95 97 103 109 113 114 114 112 111 110 109 107 105 103 101 98 92 85 79 75 72 70 66 63 62 61 57 52 47 44 39 32 27 25 24 23 24 23 18 13 9 6 1 356 355
36 37 39 43 41 38 40 45 52 58 61 65 72 77 82 87 88 83 78 76 75 75 76 75 73 73 74 72 70 69 67 65 66 68 71 75 80 86 94 98 98 101 112 120 121 119 119 117 114 111 109 105 102 98 95 91 86 80 75 70 66 63 60 57 54 53 52 51 52 53 50 46 44 44 43 41 37 32 26 21 18 15 10 7 7
45 43 40 46 50 45 46 53 59 64 67 67 68 72 77 85 92 94 93 92 89 86 85 83 81 85 92 92 87 81 76 74 77 81 83 88 92 94 97 102 108 115 123 126 126 125 124 119 113 109 106 102 98 93 90 88 85 79 73 67 60 56 53 51 51 53 55 57 59 59 57 55 52 50 48 46 42 37 31 27 24 22 21 22 22
47 45 41 43 48 47 48 58 67 70 75 78 79 78 77 75 78 84 90 99 106 108 102 96 92 89 94 99 102 101 99 101 109 116 118 119 122 123 123 127 133 138 142 147 148 142 131 117 107 105 103 100 97 94 91 88 84 79 73 65 60 59 60 61 63 65 66 66 66 63 60 56 53 48 46 45 44 41 37 34 29 27 28 30 29
43 46 46 46 46 44 43 53 68 76 81 87 90 90 88 82 77 75 77 86 98 102 103 105 107 111 119 124 126 128 133 136 137 141 148 156 159 157 156 158 159 159 163 163 148 133 124 113 105 103 101 99 97 96 93 88 81 76 73 71 71 72 74 74 74 73 72 70 66 62 57 54 51 48 44 43 43 42 40 36 32 30 32 35 34
38 41 49 52 52 51 47 46 61 79 88 94 98 101 98 93 88 84 82 84 88 90 92 96 99 102 113 127 138 146 149 146 143 146 157 166 166 161 158 159 156 153 160 158 134 120 117 113 106 104 102 99 99 96 91 85 79 76 80 84 85 83 81 80 78 75 72 68 64 60 58 55 52 50 48 44 42 41 38 34 32 31 31 33 33
29 29 38 53 62 64 59 52 51 70 103 106 106 109 108 105 102 99 94 92 93 94 92 89 85 81 79 82 97 121 135 140 144 150 156 159 158 154 151 150 147 148 158 153 130 118 115 111 107 105 102 100 100 97 90 85 85 89 93 94 93 90 86 83 80 76 71 68 65 62 59 56 54 53 50 48 46 43 38 34 32 32 31 28 27
23 19 25 43 62 69 65 57 49 43 87 137 128 119 115 115 114 112 108 104 99 96 93 88 82 76 70 63 60 68 94 131 146 150 150 149 149 150 148 144 141 144 150 141 128 122 118 114 110 107 104 103 102 98 93 94 97 100 101 99 96 94 90 85 81 76 72 69 67 64 60 57 54 52 50 49 47 44 40 37 34 32 30 25 21
22 23 24 34 50 61 64 63 53 39 41 139 150 134 124 124 123 119 117 115 109 101 95 91 87 80 73 66 58 60 84 125 141 144 146 145 145 148 146 137 131 130 129 127 125 125 123 120 115 112 109 106 101 96 97 102 105 104 103 101 98 94 90 85 80 76 73 69 66 63 60 58 55 53 52 49 47 43 39 36 35 33 28 21 16
20 30 35 38 43 50 58 67 63 48 44 90 153 148 136 131 129 124 119 116 114 109 103 102 103 97 86 78 72 71 88 118 135 140 141 142 147 152 147 135 128 126 125 126 127 128 127 124 122 120 117 110 102 100 104 108 108 105 103 101 98 94 89 84 80 76 73 69 65 61 58 56 54 53 51 48 45 42 38 34 32 30 24 18 13
14 26 34 39 43 49 59 74 78 63 53 72 141 157 152 143 137 131 124 117 113 110 109 120 130 126 111 97 91 88 94 110 126 134 137 142 152 158 147 136 131 129 128 130 133 132 129 127 125 124 120 114 108 108 111 110 107 104 102 100 96 92 88 83 78 75 71 66 62 58 54 51 48 45 44 41 38 36 32 28 24 23 23 22 18
9 21 29 36 39 45 54 71 90 88 77 83 122 157 167 167 159 147 135 130 129 127 127 142 151 145 130 115 108 104 103 110 121 127 131 141 149 147 140 135 133 130 128 132 138 138 133 129 128 127 124 121 116 114 112 110 107 103 99 96 92 89 86 84 81 77 70 64 60 55 49 46 43 38 35 32 28 23 19 16 13 15 21 24 21
2 14 22 27 27 28 30 41 96 121 115 106 113 146 173 182 181 172 156 145 145 145 145 152 160 155 142 132 126 119 108 107 113 118 125 132 136 138 138 137 134 131 130 134 141 141 137 134 133 132 130 129 126 121 117 113 109 103 97 93 91 88 89 90 87 79 71 64 60 56 50 46 42 37 32 28 22 17 15 15 15 15 17 19 18
346 358 7 13 14 13 9 3 353 159 155 152 139 138 169 189 193 189 174 155 149 150 149 149 154 156 150 144 143 134 108 109 122 132 136 133 132 135 140 141 138 134 134 142 149 146 139 137 138 136 135 135 133 130 127 120 111 104 100 98 95 89 85 85 81 72 66 60 55 53 53 48 42 38 36 33 30 26 22 22 22 20 17 14 12
328 338 344 349 356 360 2 359 316 240 215 198 193 170 180 199 199 191 181 165 153 146 137 128 129 136 140 135 115 54 75 122 137 144 142 136 135 138 143 145 143 138 136 148 154 147 138 136 138 137 138 140 139 135 134 130 121 113 107 101 95 87 80 76 69 61 58 55 48 45 48 48 42 38 35 32 30 29 27 24 23 21 18 16 11
325 324 322 323 330 338 347 354 264 242 233 216 228 272 262 218 201 190 180 167 153 143 134 127 127 129 132 126 83 24 112 141 139 137 132 129 133 140 140 138 138 134 134 143 148 145 138 138 139 137 138 142 143 141 141 139 132 121 105 90 85 83 77 71 65 58 57 59 54 48 48 50 44 38 33 29 28 29 29 27 24 22 21 22 18
327 311 304 316 330 328 324 300 234 238 235 221 237 281 309 289 209 193 182 168 157 150 143 139 140 143 142 134 109 93 126 135 135 133 128 123 127 137 141 137 129 123 126 137 144 144 143 142 143 143 141 141 142 144 144 137 125 108 83 66 70 81 80 74 70 64 63 65 61 53 48 42 34 30 28 25 26 29 30 28 26 22 20 23 24
347 331 321 343 350 336 306 250 228 233 233 227 234 261 295 306 269 207 191 178 167 163 160 156 154 156 153 142 122 109 117 124 127 130 130 123 120 126 134 138 135 131 134 139 143 147 151 152 153 154 154 151 147 143 134 118 101 77 48 39 57 91 98 88 77 70 70 70 62 53 41 29 24 27 28 24 22 24 25 27 27 21 17 19 22
13 23 3 2 5 359 311 235 227 229 231 234 234 226 243 279 293 246 205 195 185 180 180 176 166 159 154 141 127 120 121 121 123 128 132 127 120 118 121 124 127 137 148 151 150 149 154 159 160 160 161 162 163 160 146 121 95 47 14 5 153 161 144 118 84 65 65 63 51 42 32 22 19 24 25 24 24 21 18 22 25 21 17 17 17
357 352 344 358 13 18 347 243 236 237 237 239 240 227 214 237 268 264 218 208 207 202 193 184 177 171 160 146 137 146 162 145 128 130 132 129 124 121 120 118 118 131 150 159 157 152 152 156 159 156 151 147 154 160 158 148 132 350 354 85 170 173 162 134 95 51 38 28 22 22 21 18 18 19 16 16 20 18 16 17 19 18 17 18 14
333 340 341 349 356 352 336 297 261 249 243 239 241 237 225 226 239 244 226 217 218 216 205 194 194 196 183 165 150 155 171 175 153 132 130 130 127 125 126 126 125 128 142 156 161 162 162 163 162 158 151 144 147 180 254 260 263 284 316 139 156 165 158 130 93 17 9 4 1 3 6 10 13 12 7 3 3 5 5 6 8 10 14 18 19
321 334 341 343 338 329 321 314 293 266 248 240 240 241 235 227 227 232 233 226 221 219 214 204 202 211 203 183 165 168 185 196 207 176 140 138 140 142 143 139 132 127 130 143 158 168 177 187 198 210 236 266 278 278 269 258 250 241 204 161 157 162 155 124 44 11 8 3 354 350 354 359 358 357 356 354 350 348 349 350 354 0 10 22 30
322 330 335 338 338 332 317 305 302 285 260 247 242 242 238 232 228 232 237 229 221 223 222 214 209 223 227 199 176 210 222 224 243 260 252 240 215 191 179 167 153 141 133 132 140 151 163 180 196 218 274 282 275 267 255 231 203 190 184 175 165 165 167 157 15 6 359 350 340 331 332 339 341 342 343 341 336 333 334 336 340 351 12 38 44
321 328 329 330 336 338 328 297 290 289 271 253 245 244 244 238 232 233 237 231 223 225 229 225 220 225 229 215 201 227 243 242 250 263 263 257 251 238 213 196 184 170 157 151 149 142 140 160 180 220 317 306 271 235 208 188 179 177 176 172 169 175 191 226 314 342 341 340 339 333 327 329 329 327 326 326 323 320 320 326 334 348 30 67 53
318 325 329 329 332 334 328 304 282 276 267 255 248 245 246 244 241 239 239 236 232 230 229 226 221 217 218 220 223 242 272 273 269 270 267 256 244 242 241 223 205 192 187 189 191 188 184 206 234 291 326 337 147 156 154 155 160 163 163 167 173 183 199 228 275 321 334 335 335 333 328 327 326 324 324 324 324 320 317 321 328 348 79 100 66